Location: Newark
(40.2370°N, 1.4081°W)
Time: 15:33:30
(UTC+00:00)

N. Korean satellite - Pass Details

Date: 25 October 2019
Orbit: 456 x 506 km, 97.2° (Epoch: 21 November)

Event Time Altitude Azimuth Distance (km) Brightness Sun altitude
Rises 17:57:25 0° 198° (SSW) 2,463 10.5 -9.3°
Reaches altitude 10° 17:59:48 10° 215° (SW) 1,599 9.8 -9.7°
Maximum altitude 18:02:26 21° 265° (W) 1,102 9.6 -10.2°
Drops below altitude 10° 18:05:07 10° 316° (NW) 1,623 9.8 -10.7°
Sets 18:07:34 0° 333° (NNW) 2,513 10.5 -11.2°
